THORAD AGENA D DEB, 19422

Orbit data source: Space-Track

THORAD AGENA D DEB, 19422 is space debris in SSO originally from a launch on Wed, 08 Apr 1970 UTC launched from the Air Force Western Test Range (AFWTR). Debris objects in space refer to the collection of defunct objects orbiting the Earth. Examples of debris include non-operational satellites, rocket bodies, and fragments generated from explosions, collisions, or faulty payload assembly.

Loading next visibility...
Identifier
19422, 1970-025QA
Orbit
SSO
Country
Flag of USUS
Related business
Manufacturer
Unknown
Mission
Spacecraft
Bus & Motor
Unknown
Mass
Unknown
Launch date (UTC)
1970-04-08 (56 years ago)
Launch vehicle
Unknown
Launch site
Air Force Western Test Range (AFWTR)
Object type
Payload
Rocket body
Debris
Shape & HBR
Unknown shape, 0.1 m
Radar Cross Section
Medium (>0.1 m² and <1 m²)

Expand to show TLE details & history
Last TLE update: 13 hours ago

TLE from 13 hours ago
0 THORAD AGENA D DEB
1 19422U 70025QA  26256.15846471  .00000255  00000-0  36309-3 0  9995
2 19422 100.0756 326.6051 0011277  75.7060 313.3579 13.66815557 58646
Epoch: 2026-09-13T03:48Z
TLE epoch observation values (Epoch: 2026-09-13T03:48:11.350Z)
Latitude
28.52694°
Longitude
-88.11307°
Altitude
1,008.724 km
Speed
7.353 km/s
True Right ascension
21h 24m 21s
True Declination
28° 23' 16"
Sunlit
Object was in full shadow at epoch
Visualization orbit readout
Latitude
Unknown
Longitude
Unknown
Altitude
Unknown
Speed
Unknown
Apparent Right ascension
Unknown
Apparent Declination
Unknown
Sunlit
N/A
Visualization observer readout
Local Sidereal Time
09:28:14
Azimuth
Unknown
Elevation
Unknown
Doppler factor
Unknown
Orbital elements
Apogee altitude
1,016.654 km
Perigee altitude
999.995 km
Semi-major axis
7,386.462 km
Eccentricity
0.00113
Inclination
100.0756°
RAAN
326.6051°
Arg. of periapsis
75.706°
True anomaly
313.26385°
Mean anomaly
313.3579°
Eccentric anomaly
313.31089°
Mean motion
3.41892 °/min
Orbital period
105.3 mins
BSTAR
0.00036309

Documentation

Showing up to 5 results
|